Location: *
(45.9500°N, 9.0833°E)
Time: 19:47:43
(UTC+00:00)

Vanguard 2 Rocket - Pass Details

Date: 16 June 2021
Orbit: 555 x 3325 km, 32.9° (Epoch: 30 July)

Event Time Altitude Azimuth Distance (km) Brightness Sun altitude
Rises 18:21:32 0° 219° (SW) 7,295 11.7 7.4°
Reaches altitude 10° 18:27:18 10° 211° (SSW) 6,257 11.2 6.5°
Maximum altitude 18:43:21 33° 157° (SSE) 4,029 9.8 4.0°
Drops below altitude 10° 18:55:17 10° 100° (E) 4,686 10.0 2.2°
Sets 18:58:48 0° 91° (E) 5,327 10.3 1.7°
